| time (UTC) | temp F | wind direction | speed MPH | gust MPH | rain 1hr in | rain 24hr in | rain mn in | humidity % | barometer mb |
| 20260502220719 | 57 | 131 | 0.0 | 2.0 | 0.00 | 0.00 | 0.00 | 49 | 1008.0 |
| 20260502220216 | 57 | 61 | 3.0 | 3.0 | 0.00 | 0.00 | 0.00 | 49 | 1007.9 |
| 20260502215713 | 57 | 52 | 0.0 | 2.0 | 0.00 | 0.00 | 0.00 | 52 | 1008.2 |
| 20260502215210 | 57 | 92 | 2.0 | 3.0 | 0.00 | 0.00 | 0.00 | 50 | 1007.9 |
| 20260502214707 | 56 | 89 | 1.0 | 2.0 | 0.00 | 0.00 | 0.00 | 51 | 1008.1 |
| 20260502214204 | 57 | 287 | 0.0 | 5.0 | 0.00 | 0.00 | 0.00 | 50 | 1008.0 |
| 20260502213701 | 57 | 256 | 0.0 | 3.0 | 0.00 | 0.00 | 0.00 | 51 | 1008.0 |
| 20260502213158 | 56 | 205 | 0.0 | 2.0 | 0.00 | 0.00 | 0.00 | 51 | 1007.9 |
| 20260502212657 | 57 | 326 | 1.0 | 1.0 | 0.00 | 0.00 | 0.00 | 50 | 1007.9 |
| 20260502212155 | 57 | 224 | 0.0 | 2.0 | 0.00 | 0.00 | 0.00 | 50 | 1007.9 |
| 20260502211650 | 57 | 205 | 0.0 | 2.0 | 0.00 | 0.00 | 0.00 | 51 | 1007.9 |
| 20260502211148 | 57 | 218 | 0.0 | 0.0 | 0.00 | 0.00 | 0.00 | 51 | 1007.8 |
| 20260502210645 | 57 | 71 | 2.0 | 2.0 | 0.00 | 0.00 | 0.00 | 53 | 1007.8 |
| 20260502210142 | 57 | 99 | 1.0 | 1.0 | 0.00 | 0.00 | 0.00 | 50 | 1007.6 |
| 20260502205638 | 57 | 283 | 0.0 | 3.0 | 0.00 | 0.00 | 0.00 | 50 | 1007.5 |
| 20260502205135 | 58 | 70 | 0.0 | 3.0 | 0.00 | 0.00 | 0.00 | 49 | 1008.0 |
| 20260502204632 | 59 | 159 | 0.0 | 2.0 | 0.00 | 0.00 | 0.00 | 49 | 1007.7 |
| 20260502204130 | 58 | 168 | 1.0 | 3.0 | 0.00 | 0.00 | 0.00 | 49 | 1007.8 |
| 20260502203626 | 58 | 209 | 0.0 | 2.0 | 0.00 | 0.00 | 0.00 | 51 | 1007.8 |
| 20260502203125 | 57 | 158 | 1.0 | 2.0 | 0.00 | 0.00 | 0.00 | 52 | 1007.8 |
| 20260502202619 | 58 | 205 | 3.0 | 3.0 | 0.00 | 0.00 | 0.00 | 50 | 1007.7 |
| 20260502202118 | 58 | 61 | 2.0 | 2.0 | 0.00 | 0.00 | 0.00 | 53 | 1007.8 |
| 20260502201613 | 57 | 246 | 0.0 | 3.0 | 0.00 | 0.00 | 0.00 | 51 | 1007.6 |
| 20260502201105 | 58 | 236 | 2.0 | 3.0 | 0.00 | 0.00 | 0.00 | 50 | 1007.6 |
| 20260502200601 | 57 | 18 | 1.0 | 2.0 | 0.00 | 0.00 | 0.00 | 54 | 1007.9 |
| 20260502200058 | 57 | 121 | 0.0 | 2.0 | 0.00 | 0.00 | 0.00 | 51 | 1007.7 |
| 20260502195556 | 57 | 358 | 2.0 | 3.0 | 0.00 | 0.00 | 0.00 | 51 | 1007.6 |
| 20260502195052 | 58 | 66 | 3.0 | 3.0 | 0.00 | 0.00 | 0.00 | 51 | 1007.8 |
| 20260502194549 | 58 | 145 | 1.0 | 2.0 | 0.00 | 0.00 | 0.00 | 51 | 1007.9 |
| 20260502194045 | 58 | 6 | 0.0 | 4.0 | 0.00 | 0.00 | 0.00 | 52 | 1007.9 |
| 20260502193542 | 58 | 238 | 0.0 | 3.0 | 0.00 | 0.00 | 0.00 | 52 | 1007.9 |
| 20260502193039 | 58 | 0 | 2.0 | 3.0 | 0.00 | 0.00 | 0.00 | 50 | 1008.0 |
| 20260502192534 | 58 | 196 | 2.0 | 3.0 | 0.00 | 0.00 | 0.00 | 51 | 1008.1 |
| 20260502192032 | 58 | 35 | 1.0 | 5.0 | 0.00 | 0.00 | 0.00 | 51 | 1008.2 |
| 20260502191529 | 58 | 83 | 1.0 | 2.0 | 0.00 | 0.00 | 0.00 | 51 | 1008.4 |
| 20260502191027 | 57 | 200 | 3.0 | 3.0 | 0.00 | 0.00 | 0.00 | 51 | 1008.3 |
| 20260502190524 | 58 | 198 | 2.0 | 3.0 | 0.00 | 0.00 | 0.00 | 49 | 1008.3 |
| 20260502190021 | 58 | 131 | 1.0 | 3.0 | 0.00 | 0.00 | 0.00 | 49 | 1008.4 |
| 20260502185516 | 58 | 264 | 0.0 | 2.0 | 0.00 | 0.00 | 0.00 | 49 | 1008.4 |
| 20260502185013 | 58 | 44 | 0.0 | 3.0 | 0.00 | 0.00 | 0.00 | 49 | 1008.6 |
| 20260502184508 | 59 | 53 | 2.0 | 4.0 | 0.00 | 0.00 | 0.00 | 49 | 1008.9 |
| 20260502184005 | 59 | 230 | 3.0 | 3.0 | 0.00 | 0.00 | 0.00 | 49 | 1008.7 |
| 20260502183501 | 59 | 70 | 2.0 | 3.0 | 0.00 | 0.00 | 0.00 | 49 | 1008.9 |
| 20260502182956 | 58 | 256 | 0.0 | 3.0 | 0.00 | 0.00 | 0.00 | 47 | 1008.9 |
| 20260502182452 | 59 | 52 | 2.0 | 3.0 | 0.00 | 0.00 | 0.00 | 45 | 1008.9 |
| 20260502181948 | 58 | 339 | 2.0 | 2.0 | 0.00 | 0.00 | 0.00 | 49 | 1009.2 |
| 20260502181447 | 57 | 160 | 0.0 | 5.0 | 0.00 | 0.00 | 0.00 | 44 | 1009.3 |
| 20260502180945 | 57 | 135 | 0.0 | 2.0 | 0.00 | 0.00 | 0.00 | 44 | 1009.4 |
| 20260502180442 | 58 | 75 | 2.0 | 3.0 | 0.00 | 0.00 | 0.00 | 44 | 1009.7 |
| 20260502170401 | 55 | 27 | 2.0 | 3.0 | 0.00 | 0.00 | 0.00 | 52 | 1010.0 |
| 20260502164342 | 55 | 276 | 1.0 | 3.0 | 0.00 | 0.00 | 0.00 | 56 | 1010.2 |
| 20260502163838 | 55 | 348 | 2.0 | 2.0 | 0.00 | 0.00 | 0.00 | 55 | 1010.2 |
| 20260502163334 | 56 | 12 | 0.0 | 3.0 | 0.00 | 0.00 | 0.00 | 58 | 1010.3 |
| 20260502162832 | 55 | 199 | 1.0 | 4.0 | 0.00 | 0.00 | 0.00 | 57 | 1010.3 |
| 20260502162329 | 55 | 50 | 0.0 | 2.0 | 0.00 | 0.00 | 0.00 | 61 | 1009.9 |
| 20260502161826 | 55 | 102 | 1.0 | 2.0 | 0.00 | 0.00 | 0.00 | 61 | 1010.0 |
| 20260502161321 | 55 | 221 | 3.0 | 4.0 | 0.00 | 0.00 | 0.00 | 60 | 1010.2 |
| 20260502160820 | 55 | 276 | 0.0 | 2.0 | 0.00 | 0.00 | 0.00 | 58 | 1010.4 |
| 20260502160318 | 55 | 190 | 3.0 | 3.0 | 0.00 | 0.00 | 0.00 | 58 | 1010.4 |
| 20260502152248 | 54 | 194 | 0.0 | 3.0 | 0.00 | 0.00 | 0.00 | 60 | 1010.4 |
| 20260502151745 | 54 | 311 | 0.0 | 3.0 | 0.00 | 0.00 | 0.00 | 59 | 1010.9 |
| 20260502151242 | 55 | 208 | 1.0 | 3.0 | 0.00 | 0.00 | 0.00 | 58 | 1010.9 |
| 20260502150739 | 54 | 173 | 2.0 | 3.0 | 0.00 | 0.00 | 0.00 | 58 | 1010.7 |
| 20260502150236 | 54 | 150 | 0.0 | 2.0 | 0.00 | 0.00 | 0.00 | 60 | 1010.8 |
| 20260502130619 | 52 | 233 | 1.0 | 5.0 | 0.00 | 0.00 | 0.00 | 62 | 1010.0 |
| 20260502130116 | 52 | 295 | 3.0 | 4.0 | 0.00 | 0.00 | 0.00 | 65 | 1010.2 |
| 20260502123602 | 51 | 196 | 2.0 | 4.0 | 0.00 | 0.00 | 0.00 | 67 | 1010.0 |
| 20260502123058 | 51 | 220 | 1.0 | 5.0 | 0.00 | 0.00 | 0.00 | 68 | 1010.0 |
| 20260502122555 | 52 | 184 | 1.0 | 3.0 | 0.00 | 0.00 | 0.00 | 69 | 1010.0 |
| 20260502122052 | 51 | 230 | 1.0 | 4.0 | 0.00 | 0.00 | 0.00 | 69 | 1009.7 |
| 20260502121549 | 51 | 286 | 2.0 | 5.0 | 0.00 | 0.00 | 0.00 | 69 | 1009.7 |
| 20260502121047 | 52 | 170 | 2.0 | 2.0 | 0.00 | 0.00 | 0.00 | 70 | 1009.7 |
| 20260502120543 | 52 | 128 | 0.0 | 3.0 | 0.00 | 0.00 | 0.00 | 71 | 1010.0 |
| 20260502115538 | 52 | 290 | 0.0 | 3.0 | 0.00 | 0.00 | 0.00 | 71 | 1010.2 |
| 20260502115033 | 52 | 225 | 0.0 | 3.0 | 0.00 | 0.00 | 0.00 | 71 | 1010.1 |
| 20260502114530 | 52 | 16 | 2.0 | 3.0 | 0.00 | 0.00 | 0.00 | 70 | 1010.3 |
| 20260502114027 | 52 | 236 | 4.0 | 5.0 | 0.00 | 0.00 | 0.00 | 69 | 1010.1 |
| 20260502113525 | 52 | 238 | 3.0 | 3.0 | 0.00 | 0.00 | 0.00 | 70 | 1010.2 |
| 20260502113023 | 52 | 154 | 1.0 | 4.0 | 0.00 | 0.00 | 0.00 | 70 | 1010.1 |
| 20260502112521 | 52 | 228 | 1.0 | 4.0 | 0.00 | 0.00 | 0.00 | 73 | 1010.2 |
| 20260502112018 | 52 | 200 | 0.0 | 5.0 | 0.00 | 0.00 | 0.00 | 73 | 1010.1 |
| 20260502111515 | 52 | 243 | 0.0 | 2.0 | 0.00 | 0.00 | 0.00 | 75 | 1009.9 |
| 20260502111013 | 52 | 0 | 0.0 | 3.0 | 0.00 | 0.00 | 0.00 | 76 | 1010.0 |
| 20260502110510 | 52 | 236 | 1.0 | 2.0 | 0.00 | 0.00 | 0.00 | 77 | 1009.7 |
| 20260502110008 | 52 | 163 | 2.0 | 3.0 | 0.00 | 0.00 | 0.00 | 77 | 1009.8 |
| 20260502105505 | 52 | 219 | 1.0 | 3.0 | 0.00 | 0.00 | 0.00 | 78 | 1009.6 |
| 20260502105002 | 52 | 254 | 0.0 | 2.0 | 0.00 | 0.00 | 0.00 | 77 | 1009.6 |
| 20260502104459 | 52 | 343 | 0.0 | 2.0 | 0.00 | 0.00 | 0.00 | 77 | 1009.5 |
| 20260502103956 | 52 | 167 | 0.0 | 2.0 | 0.00 | 0.00 | 0.00 | 77 | 1009.7 |
| 20260502103454 | 52 | 56 | 0.0 | 3.0 | 0.00 | 0.00 | 0.00 | 76 | 1009.7 |
| 20260502102951 | 52 | 144 | 1.0 | 2.0 | 0.00 | 0.00 | 0.00 | 75 | 1009.5 |
| 20260502102448 | 52 | 82 | 0.0 | 2.0 | 0.00 | 0.00 | 0.00 | 75 | 1009.5 |
| 20260502101944 | 52 | 142 | 0.0 | 3.0 | 0.00 | 0.00 | 0.00 | 74 | 1009.4 |
| 20260502101443 | 52 | 94 | 2.0 | 2.0 | 0.00 | 0.00 | 0.00 | 75 | 1009.4 |
| 20260502100941 | 52 | 125 | 1.0 | 3.0 | 0.00 | 0.00 | 0.00 | 76 | 1009.3 |
| 20260502100440 | 52 | 198 | 1.0 | 2.0 | 0.00 | 0.00 | 0.00 | 75 | 1009.2 |
| 20260502091414 | 50 | 214 | 1.0 | 2.0 | 0.00 | 0.00 | 0.00 | 87 | 1008.9 |
| 20260502090911 | 49 | 181 | 0.0 | 3.0 | 0.00 | 0.00 | 0.00 | 89 | 1008.8 |
| 20260502090408 | 49 | 208 | 0.0 | 2.0 | 0.00 | 0.00 | 0.00 | 91 | 1008.7 |
| 20260502071303 | 49 | 105 | 1.0 | 2.0 | 0.00 | 0.00 | 0.00 | 93 | 1008.3 |
| 20260502070801 | 49 | 127 | 0.0 | 2.0 | 0.00 | 0.00 | 0.00 | 93 | 1008.1 |
| 20260502070258 | 49 | 107 | 0.0 | 2.0 | 0.00 | 0.00 | 0.00 | 93 | 1008.1 |
| 20260502065757 | 49 | 96 | 2.0 | 2.0 | 0.00 | 0.00 | 0.00 | 92 | 1008.2 |
| 20260502065255 | 49 | 121 | 0.0 | 2.0 | 0.00 | 0.00 | 0.00 | 92 | 1008.2 |
| 20260502064753 | 49 | 107 | 2.0 | 3.0 | 0.00 | 0.00 | 0.00 | 92 | 1008.4 |
| 20260502064250 | 50 | 75 | 0.0 | 2.0 | 0.00 | 0.00 | 0.00 | 92 | 1008.1 |
| 20260502063747 | 50 | 128 | 1.0 | 2.0 | 0.00 | 0.00 | 0.00 | 91 | 1008.0 |
| 20260502063245 | 50 | 127 | 0.0 | 2.0 | 0.00 | 0.00 | 0.00 | 91 | 1008.1 |
| 20260502062742 | 50 | 95 | 1.0 | 2.0 | 0.00 | 0.00 | 0.00 | 90 | 1008.2 |
| 20260502062240 | 51 | 89 | 2.0 | 3.0 | 0.00 | 0.00 | 0.00 | 90 | 1008.4 |
| 20260502061738 | 51 | 76 | 0.0 | 2.0 | 0.00 | 0.00 | 0.00 | 90 | 1008.4 |
| 20260502061236 | 51 | 109 | 1.0 | 2.0 | 0.00 | 0.00 | 0.00 | 90 | 1008.6 |
| 20260502060730 | 51 | 119 | 1.0 | 3.0 | 0.00 | 0.00 | 0.00 | 89 | 1008.8 |
| 20260502060226 | 51 | 186 | 0.0 | 2.0 | 0.00 | 0.00 | 0.00 | 89 | 1008.9 |
| 20260502055724 | 51 | 101 | 2.0 | 2.0 | 0.00 | 0.00 | 0.00 | 89 | 1009.0 |
| 20260502055222 | 51 | 357 | 0.0 | 2.0 | 0.00 | 0.00 | 0.00 | 89 | 1009.1 |
| 20260502054721 | 52 | 110 | 2.0 | 2.0 | 0.00 | 0.00 | 0.00 | 89 | 1008.9 |
| 20260502054218 | 52 | 116 | 1.0 | 2.0 | 0.00 | 0.00 | 0.00 | 89 | 1009.3 |
| 20260502053716 | 52 | 201 | 0.0 | 2.0 | 0.00 | 0.00 | 0.00 | 89 | 1009.3 |
| 20260502053213 | 52 | 127 | 0.0 | 2.0 | 0.00 | 0.00 | 0.00 | 89 | 1009.2 |
| 20260502052711 | 52 | 176 | 1.0 | 2.0 | 0.00 | 0.00 | 0.00 | 88 | 1009.1 |
| 20260502052208 | 52 | 217 | 0.0 | 2.0 | 0.00 | 0.00 | 0.00 | 88 | 1009.0 |
| 20260502051701 | 52 | 123 | 2.0 | 3.0 | 0.00 | 0.00 | 0.00 | 87 | 1008.7 |
| 20260502051159 | 52 | 113 | 1.0 | 2.0 | 0.00 | 0.00 | 0.00 | 87 | 1008.7 |
| 20260502050655 | 53 | 73 | 0.0 | 2.0 | 0.00 | 0.00 | 0.00 | 87 | 1008.7 |
| 20260502050151 | 53 | 97 | 1.0 | 2.0 | 0.00 | 0.00 | 0.00 | 86 | 1008.6 |
| 20260502045648 | 53 | 141 | 1.0 | 2.0 | 0.00 | 0.00 | 0.00 | 86 | 1008.7 |
| 20260502045145 | 53 | 131 | 0.0 | 2.0 | 0.00 | 0.00 | 0.00 | 86 | 1008.5 |
| 20260502044642 | 53 | 143 | 1.0 | 3.0 | 0.00 | 0.00 | 0.00 | 85 | 1008.7 |
| 20260502044138 | 53 | 138 | 2.0 | 3.0 | 0.00 | 0.00 | 0.00 | 85 | 1008.7 |
| 20260502043636 | 53 | 108 | 1.0 | 2.0 | 0.00 | 0.00 | 0.00 | 85 | 1008.7 |
| 20260502043133 | 53 | 122 | 2.0 | 2.0 | 0.00 | 0.00 | 0.00 | 85 | 1008.7 |
| 20260502042627 | 53 | 134 | 1.0 | 3.0 | 0.00 | 0.00 | 0.00 | 85 | 1008.8 |
| 20260502042124 | 53 | 125 | 2.0 | 3.0 | 0.00 | 0.00 | 0.00 | 85 | 1008.6 |
| 20260502041622 | 53 | 89 | 0.0 | 1.0 | 0.00 | 0.00 | 0.00 | 85 | 1008.5 |
| 20260502041119 | 53 | 92 | 1.0 | 2.0 | 0.00 | 0.00 | 0.00 | 85 | 1008.8 |
| 20260502040615 | 53 | 135 | 0.0 | 2.0 | 0.00 | 0.00 | 0.00 | 85 | 1008.4 |
| 20260502040113 | 53 | 94 | 1.0 | 2.0 | 0.00 | 0.00 | 0.00 | 84 | 1008.6 |
| 20260502035609 | 53 | 89 | 1.0 | 2.0 | 0.00 | 0.00 | 0.00 | 84 | 1008.6 |
| 20260502035106 | 53 | 113 | 1.0 | 2.0 | 0.00 | 0.00 | 0.00 | 84 | 1008.6 |
| 20260502034603 | 53 | 160 | 1.0 | 2.0 | 0.00 | 0.00 | 0.00 | 84 | 1008.6 |
| 20260502034102 | 53 | 209 | 0.0 | 2.0 | 0.00 | 0.00 | 0.00 | 83 | 1008.7 |
| 20260502033600 | 53 | 129 | 0.0 | 2.0 | 0.00 | 0.00 | 0.00 | 82 | 1008.8 |
| 20260502033057 | 53 | 118 | 1.0 | 2.0 | 0.00 | 0.00 | 0.00 | 82 | 1008.7 |
| 20260502032553 | 53 | 138 | 0.0 | 2.0 | 0.00 | 0.00 | 0.00 | 82 | 1008.6 |
| 20260502032049 | 53 | 54 | 0.0 | 2.0 | 0.00 | 0.00 | 0.00 | 81 | 1008.7 |
| 20260502031547 | 53 | 111 | 1.0 | 2.0 | 0.00 | 0.00 | 0.00 | 80 | 1008.6 |
| 20260502031044 | 54 | 122 | 0.0 | 4.0 | 0.00 | 0.00 | 0.00 | 80 | 1008.6 |
| 20260502030544 | 54 | 118 | 2.0 | 2.0 | 0.00 | 0.00 | 0.00 | 79 | 1008.5 |
| 20260502030041 | 54 | 112 | 2.0 | 2.0 | 0.00 | 0.00 | 0.00 | 79 | 1008.4 |
| 20260502025538 | 54 | 120 | 2.0 | 3.0 | 0.00 | 0.00 | 0.00 | 79 | 1008.5 |
| 20260502025036 | 54 | 147 | 1.0 | 2.0 | 0.00 | 0.00 | 0.00 | 79 | 1008.5 |
| 20260502024533 | 54 | 108 | 1.0 | 2.0 | 0.00 | 0.00 | 0.00 | 78 | 1008.5 |
| 20260502024032 | 54 | 105 | 3.0 | 3.0 | 0.00 | 0.00 | 0.00 | 78 | 1008.7 |
| 20260502023529 | 54 | 116 | 0.0 | 2.0 | 0.00 | 0.00 | 0.00 | 78 | 1008.8 |
| 20260502023026 | 54 | 55 | 0.0 | 2.0 | 0.00 | 0.00 | 0.00 | 78 | 1008.6 |
| 20260502022523 | 54 | 87 | 1.0 | 2.0 | 0.00 | 0.00 | 0.00 | 78 | 1008.7 |
| 20260502022020 | 54 | 129 | 0.0 | 1.0 | 0.00 | 0.00 | 0.00 | 77 | 1008.7 |
| 20260502021518 | 55 | 46 | 1.0 | 2.0 | 0.00 | 0.00 | 0.00 | 77 | 1008.6 |
| 20260502021014 | 55 | 113 | 0.0 | 2.0 | 0.00 | 0.00 | 0.00 | 77 | 1008.8 |
| 20260502020512 | 55 | 124 | 0.0 | 2.0 | 0.00 | 0.00 | 0.00 | 76 | 1008.7 |
| 20260502020009 | 55 | 114 | 0.0 | 3.0 | 0.00 | 0.00 | 0.00 | 76 | 1008.9 |
| 20260502015507 | 55 | 89 | 0.0 | 2.0 | 0.00 | 0.00 | 0.00 | 76 | 1008.8 |
| 20260502015003 | 55 | 160 | 0.0 | 3.0 | 0.00 | 0.00 | 0.00 | 76 | 1008.8 |
| 20260502014459 | 55 | 101 | 1.0 | 2.0 | 0.00 | 0.00 | 0.00 | 75 | 1009.0 |
| 20260502013956 | 55 | 172 | 0.0 | 1.0 | 0.00 | 0.00 | 0.00 | 74 | 1008.8 |
| 20260502013446 | 55 | 76 | 0.0 | 1.0 | 0.00 | 0.00 | 0.00 | 73 | 1008.7 |
| 20260502012943 | 55 | 58 | 1.0 | 2.0 | 0.00 | 0.00 | 0.00 | 73 | 1008.7 |
| 20260502012441 | 56 | 76 | 2.0 | 2.0 | 0.00 | 0.00 | 0.00 | 72 | 1008.5 |
| 20260502011938 | 55 | 101 | 0.0 | 3.0 | 0.00 | 0.00 | 0.00 | 71 | 1008.6 |
| 20260502011433 | 56 | 103 | 0.0 | 1.0 | 0.00 | 0.00 | 0.00 | 70 | 1008.3 |
| 20260502010931 | 56 | 106 | 0.0 | 2.0 | 0.00 | 0.00 | 0.00 | 71 | 1008.2 |
| 20260502010427 | 56 | 49 | 0.0 | 2.0 | 0.00 | 0.00 | 0.00 | 70 | 1008.0 |
| 20260502005924 | 56 | 75 | 0.0 | 2.0 | 0.00 | 0.00 | 0.00 | 69 | 1008.0 |
| 20260502005422 | 56 | 54 | 2.0 | 3.0 | 0.00 | 0.00 | 0.00 | 68 | 1008.1 |
| 20260502004920 | 56 | 61 | 2.0 | 4.0 | 0.00 | 0.00 | 0.00 | 68 | 1007.9 |
| 20260502004415 | 56 | 87 | 2.0 | 3.0 | 0.00 | 0.00 | 0.00 | 67 | 1008.0 |
| 20260502003913 | 57 | 307 | 0.0 | 2.0 | 0.00 | 0.00 | 0.00 | 66 | 1007.8 |
| 20260502003410 | 57 | 66 | 2.0 | 3.0 | 0.00 | 0.00 | 0.00 | 65 | 1007.8 |
| 20260502002906 | 57 | 61 | 2.0 | 3.0 | 0.00 | 0.00 | 0.00 | 65 | 1007.9 |
| 20260502002403 | 57 | 70 | 2.0 | 2.0 | 0.00 | 0.00 | 0.00 | 64 | 1007.8 |
| 20260502001855 | 57 | 91 | 2.0 | 3.0 | 0.00 | 0.00 | 0.00 | 64 | 1008.0 |
| 20260502001352 | 57 | 15 | 1.0 | 3.0 | 0.00 | 0.00 | 0.00 | 64 | 1008.0 |
| 20260502000850 | 57 | 58 | 1.0 | 2.0 | 0.00 | 0.00 | 0.00 | 64 | 1007.8 |
| 20260502000348 | 57 | 39 | 2.0 | 2.0 | 0.00 | 0.00 | 0.00 | 63 | 1008.2 |
| 20260501235844 | 57 | 30 | 0.0 | 2.0 | 0.00 | 0.00 | 0.00 | 62 | 1007.9 |
| 20260501235339 | 58 | 62 | 2.0 | 2.0 | 0.00 | 0.00 | 0.00 | 62 | 1007.9 |
| 20260501234835 | 58 | 76 | 0.0 | 2.0 | 0.00 | 0.00 | 0.00 | 61 | 1007.8 |
| 20260501234332 | 58 | 40 | 0.0 | 2.0 | 0.00 | 0.00 | 0.00 | 60 | 1007.5 |
| 20260501233831 | 58 | 65 | 2.0 | 2.0 | 0.00 | 0.00 | 0.00 | 60 | 1007.7 |
| 20260501233328 | 59 | 66 | 0.0 | 2.0 | 0.00 | 0.00 | 0.00 | 60 | 1007.7 |
| 20260501232823 | 59 | 108 | 2.0 | 3.0 | 0.00 | 0.00 | 0.00 | 59 | 1007.8 |
| 20260501232321 | 59 | 38 | 1.0 | 2.0 | 0.00 | 0.00 | 0.00 | 58 | 1007.5 |
| 20260501231818 | 59 | 71 | 1.0 | 2.0 | 0.00 | 0.00 | 0.00 | 57 | 1007.4 |
| 20260501231316 | 59 | 75 | 1.0 | 2.0 | 0.00 | 0.00 | 0.00 | 56 | 1007.5 |
| 20260501230814 | 60 | 44 | 0.0 | 2.0 | 0.00 | 0.00 | 0.00 | 56 | 1007.6 |
| 20260501230313 | 60 | 58 | 2.0 | 2.0 | 0.00 | 0.00 | 0.00 | 54 | 1007.6 |
| 20260501225810 | 60 | 38 | 2.0 | 3.0 | 0.00 | 0.00 | 0.00 | 53 | 1007.5 |
| 20260501225308 | 60 | 77 | 2.0 | 3.0 | 0.00 | 0.00 | 0.00 | 52 | 1007.5 |
| 20260501224804 | 60 | 26 | 1.0 | 3.0 | 0.00 | 0.00 | 0.00 | 53 | 1007.4 |
| 20260501224301 | 61 | 74 | 2.0 | 3.0 | 0.00 | 0.00 | 0.00 | 53 | 1007.4 |
| 20260501223756 | 61 | 60 | 0.0 | 3.0 | 0.00 | 0.00 | 0.00 | 53 | 1007.4 |
| 20260501223253 | 61 | 86 | 2.0 | 2.0 | 0.00 | 0.00 | 0.00 | 55 | 1007.7 |
| 20260501222749 | 61 | 202 | 0.0 | 2.0 | 0.00 | 0.00 | 0.00 | 54 | 1007.6 |
| 20260501222247 | 61 | 60 | 0.0 | 2.0 | 0.00 | 0.00 | 0.00 | 53 | 1007.6 |
| 20260501221744 | 61 | 71 | 2.0 | 2.0 | 0.00 | 0.00 | 0.00 | 52 | 1007.6 |
| 20260501221240 | 62 | 11 | 2.0 | 3.0 | 0.00 | 0.00 | 0.00 | 51 | 1007.8 |